| time (UTC) | temp F | wind direction | speed knots | gust knots | rain 1hr in | rain 24hr in | rain mn in | humidity % | barometer mb |
| 20260504050511 | 52 | 180 | 5.2 | 6.1 | 0.00 | 0.00 | 0.00 | 45 | 1003.5 |
| 20260504045517 | 52 | 180 | 5.2 | 6.1 | 0.00 | 0.00 | 0.00 | 45 | 1003.8 |
| 20260504044516 | 53 | 183 | 5.2 | 7.0 | 0.00 | 0.00 | 0.00 | 45 | 1003.8 |
| 20260504042517 | 53 | 180 | 4.3 | 6.1 | 0.00 | 0.00 | 0.00 | 45 | 1004.2 |
| 20260504041517 | 52 | 180 | 5.2 | 7.8 | 0.00 | 0.00 | 0.00 | 46 | 1004.5 |
| 20260504035715 | 52 | 180 | 4.3 | 5.2 | 0.00 | 0.00 | 0.00 | 46 | 1004.8 |
| 20260504034718 | 52 | 202 | 4.3 | 5.2 | 0.00 | 0.00 | 0.00 | 46 | 1005.2 |
| 20260504033816 | 52 | 202 | 4.3 | 6.1 | 0.00 | 0.00 | 0.00 | 46 | 1005.2 |
| 20260504031916 | 52 | 202 | 3.5 | 4.3 | 0.00 | 0.00 | 0.00 | 46 | 1005.5 |
| 20260504030916 | 52 | 202 | 3.5 | 4.3 | 0.00 | 0.00 | 0.00 | 45 | 1005.5 |
| 20260504025916 | 53 | 202 | 1.7 | 2.6 | 0.00 | 0.00 | 0.00 | 43 | 1005.5 |
| 20260504024916 | 52 | 202 | 2.6 | 3.5 | 0.00 | 0.00 | 0.00 | 45 | 1005.5 |
| 20260504023916 | 53 | 202 | 2.6 | 3.5 | 0.00 | 0.00 | 0.00 | 45 | 1005.5 |
| 20260504022917 | 54 | 202 | 3.5 | 4.3 | 0.00 | 0.00 | 0.00 | 44 | 1005.5 |
| 20260504021915 | 54 | 202 | 3.5 | 4.3 | 0.00 | 0.00 | 0.00 | 42 | 1005.5 |
| 20260504020916 | 55 | 225 | 2.6 | 4.3 | 0.00 | 0.00 | 0.00 | 40 | 1005.5 |
| 20260504014916 | 56 | 225 | 0.9 | 1.7 | 0.00 | 0.00 | 0.00 | 37 | 1004.8 |
| 20260504013015 | 58 | 225 | 1.7 | 3.5 | 0.00 | 0.00 | 0.00 | 34 | 1005.2 |
| 20260504012015 | 60 | 225 | 1.7 | 3.5 | 0.00 | 0.00 | 0.00 | 33 | 1004.8 |
| 20260504011015 | 61 | 247 | 2.6 | 3.5 | 0.00 | 0.00 | 0.00 | 30 | 1004.8 |
| 20260504010017 | 62 | 225 | 2.6 | 5.2 | 0.00 | 0.00 | 0.00 | 30 | 1004.5 |
| 20260504005116 | 63 | 247 | 2.6 | 4.3 | 0.00 | 0.00 | 0.00 | 28 | 1004.8 |
| 20260504004215 | 63 | 225 | 3.5 | 6.1 | 0.00 | 0.00 | 0.00 | 27 | 1004.5 |
| 20260504003217 | 63 | 247 | 1.7 | 4.3 | 0.00 | 0.00 | 0.00 | 27 | 1004.5 |
| 20260504002316 | 63 | 251 | 4.3 | 7.0 | 0.00 | 0.00 | 0.00 | 26 | 1004.5 |
| 20260504001315 | 64 | 270 | 5.2 | 7.8 | 0.00 | 0.00 | 0.00 | 25 | 1004.5 |
| 20260504000317 | 65 | 275 | 7.0 | 11.3 | 0.00 | 0.00 | 0.00 | 24 | 1004.5 |
| 20260503234317 | 66 | 280 | 6.1 | 9.6 | 0.00 | 0.00 | 0.00 | 25 | 1004.5 |
| 20260503233317 | 66 | 284 | 7.0 | 11.3 | 0.00 | 0.00 | 0.00 | 25 | 1004.7 |
| 20260503232317 | 66 | 284 | 7.0 | 8.7 | 0.00 | 0.00 | 0.00 | 24 | 1004.6 |
| 20260503230416 | 67 | 280 | 8.7 | 13.9 | 0.00 | 0.00 | 0.00 | 24 | 1004.5 |
| 20260503224417 | 67 | 246 | 6.1 | 10.4 | 0.00 | 0.00 | 0.00 | 22 | 1004.5 |
| 20260503223416 | 67 | 277 | 8.7 | 13.0 | 0.00 | 0.00 | 0.00 | 22 | 1004.5 |
| 20260503222415 | 67 | 306 | 6.1 | 10.4 | 0.00 | 0.00 | 0.00 | 25 | 1004.5 |
| 20260503215417 | 68 | 321 | 7.8 | 11.3 | 0.00 | 0.00 | 0.00 | 24 | 1004.5 |
| 20260503214416 | 68 | 327 | 10.4 | 14.8 | 0.00 | 0.00 | 0.00 | 23 | 1004.5 |
| 20260503212515 | 68 | 310 | 10.4 | 13.9 | 0.00 | 0.00 | 0.00 | 24 | 1004.5 |
| 20260503210517 | 68 | 308 | 7.0 | 10.4 | 0.00 | 0.00 | 0.00 | 25 | 1004.8 |
| 20260503205515 | 68 | 311 | 8.7 | 12.2 | 0.00 | 0.00 | 0.00 | 25 | 1004.5 |
| 20260503204515 | 68 | 311 | 8.7 | 13.0 | 0.00 | 0.00 | 0.00 | 25 | 1004.8 |
| 20260503203516 | 68 | 279 | 7.8 | 11.3 | 0.00 | 0.00 | 0.00 | 25 | 1004.8 |
| 20260503201515 | 67 | 282 | 10.4 | 13.9 | 0.00 | 0.00 | 0.00 | 22 | 1004.8 |
| 20260503195516 | 67 | 309 | 5.2 | 7.8 | 0.00 | 0.00 | 0.00 | 26 | 1005.2 |
| 20260503194515 | 67 | 309 | 5.2 | 7.8 | 0.00 | 0.00 | 0.00 | 26 | 1005.2 |
| 20260503193517 | 67 | 309 | 9.6 | 12.2 | 0.00 | 0.00 | 0.00 | 27 | 1005.2 |
| 20260503192515 | 66 | 294 | 9.6 | 13.0 | 0.00 | 0.00 | 0.00 | 26 | 1005.6 |
| 20260503191614 | 66 | 298 | 9.6 | 14.8 | 0.00 | 0.00 | 0.00 | 27 | 1005.5 |
| 20260503190615 | 66 | 299 | 8.7 | 13.9 | 0.00 | 0.00 | 0.00 | 27 | 1005.5 |
| 20260503185615 | 67 | 313 | 13.0 | 16.5 | 0.00 | 0.00 | 0.00 | 35 | 1005.2 |
| 20260503183617 | 65 | 294 | 6.1 | 14.8 | 0.00 | 0.00 | 0.00 | 37 | 1005.6 |
| 20260503182616 | 66 | 309 | 11.3 | 14.8 | 0.00 | 0.00 | 0.00 | 38 | 1005.5 |
| 20260503180616 | 65 | 318 | 11.3 | 14.8 | 0.00 | 0.00 | 0.00 | 38 | 1005.5 |
| 20260503175714 | 66 | 342 | 11.3 | 14.8 | 0.00 | 0.00 | 0.00 | 39 | 1005.9 |
| 20260503174814 | 65 | 355 | 11.3 | 14.8 | 0.00 | 0.00 | 0.00 | 36 | 1005.9 |
| 20260503173914 | 65 | 310 | 8.7 | 13.0 | 0.00 | 0.00 | 0.00 | 40 | 1005.9 |
| 20260503172917 | 65 | 312 | 7.8 | 13.0 | 0.00 | 0.00 | 0.00 | 40 | 1005.9 |
| 20260503172015 | 64 | 301 | 8.7 | 13.0 | 0.00 | 0.00 | 0.00 | 37 | 1005.9 |
| 20260503171016 | 65 | 312 | 8.7 | 13.0 | 0.00 | 0.00 | 0.00 | 38 | 1006.3 |
| 20260503170113 | 65 | 325 | 9.6 | 14.8 | 0.00 | 0.00 | 0.00 | 38 | 1006.3 |
| 20260503160217 | 63 | 335 | 7.0 | 8.7 | 0.00 | 0.00 | 0.00 | 43 | 1006.3 |
| 20260503150316 | 60 | 343 | 8.7 | 11.3 | 0.00 | 0.00 | 0.00 | 42 | 1006.6 |
| 20260503130517 | 54 | 225 | 5.2 | 7.8 | 0.00 | 0.00 | 0.00 | 55 | 1007.0 |
| 20260503110714 | 50 | 202 | 2.6 | 4.3 | 0.00 | 0.00 | 0.00 | 57 | 1007.0 |
| 20260503072816 | 52 | 180 | 6.1 | 7.8 | 0.00 | 0.00 | 0.00 | 54 | 1008.7 |
| 20260503070814 | 53 | 189 | 7.8 | 10.4 | 0.00 | 0.00 | 0.00 | 53 | 1009.0 |
| 20260503054916 | 54 | 169 | 5.2 | 8.7 | 0.00 | 0.00 | 0.00 | 52 | 1009.7 |
| 20260503053917 | 55 | 180 | 4.3 | 7.0 | 0.00 | 0.00 | 0.00 | 51 | 1009.7 |
| 20260503051914 | 54 | 157 | 4.3 | 6.1 | 0.00 | 0.00 | 0.00 | 52 | 1010.1 |
| 20260503050932 | 54 | 180 | 3.5 | 6.1 | 0.00 | 0.00 | 0.00 | 51 | 1010.1 |